Date String (YYYY-MM-DD hh:mm:ss) UTC,Instrument flags,Ambient pressure (hPa),Sample flow (lpm),Bypass flow (lpm),Sample temperature (°C),Ambient temperature (°C),ASC tube jacket temperature (°C),LED temperature (°C),Box temperature (°C),Sample RH (%),Span deviation,Mass concentration (μg/m³),Mass concentration (μg/m³),Mass concentration (μg/m³)
DateTimeUTC,F1_M11,P_M11,Q1_M11,Q2_M11,T1_M11,T2_M11,T3_M11,T4_M11,T5_M11,U1_M11,ZSPAN_M11,X0_M11,X2_M11,X1_M11
2021-10-02 00:00:00,,0829.9,4.99,0.00,30.1,29.4,00.0,39.0,32.0,21.0,0000.3,0018.62,0009.30,0008.55
2021-10-02 00:01:00,,0829.9,5.00,0.00,30.1,29.2,00.0,39.0,31.9,21.1,0000.2,0018.51,0009.23,0008.49
2021-10-02 00:02:00,,0829.8,5.01,0.00,30.0,27.3,00.0,39.0,31.4,21.4,0000.5,0018.74,0009.12,0008.38
2021-10-02 00:03:00,,0829.9,4.99,0.00,29.8,25.6,00.0,39.0,31.0,21.9,0000.8,0019.38,0009.02,0008.28
2021-10-02 00:04:00,,0829.9,5.00,0.00,29.7,25.6,00.0,38.9,30.9,22.1,0000.9,0018.80,0008.91,0008.19
2021-10-02 00:05:00,,0829.9,5.00,0.00,29.6,26.1,00.0,38.9,31.0,22.5,0001.0,0018.85,0008.86,0008.10
2021-10-02 00:06:00,,0829.9,5.00,0.00,29.5,26.6,00.0,38.8,31.1,22.5,0000.9,0018.84,0008.77,0008.00
2021-10-02 00:07:00,,0829.8,4.99,0.00,29.5,27.1,00.0,38.8,31.2,22.1,0000.8,0018.02,0008.69,0007.92
2021-10-02 00:08:00,,0830.0,5.01,0.00,29.5,27.5,00.0,38.8,31.2,21.7,0000.9,0018.31,0008.63,0007.88
2021-10-02 00:09:00,,0829.9,4.99,0.00,29.6,27.8,00.0,38.7,31.3,21.7,0001.0,0018.10,0008.55,0007.83
2021-10-02 00:10:00,,0829.8,5.00,0.00,29.6,28.1,00.0,38.7,31.4,21.9,0001.0,0018.10,0008.51,0007.80
2021-10-02 00:11:00,,0829.8,5.00,0.00,29.6,28.3,00.0,38.7,31.4,21.7,0001.0,0018.41,0008.47,0007.76
2021-10-02 00:12:00,,0829.9,5.00,0.00,29.7,28.5,00.0,38.7,31.5,21.5,0001.3,0018.43,0008.48,0007.75
2021-10-02 00:13:00,,0829.9,5.01,0.00,29.7,28.6,00.0,38.7,31.5,21.6,0001.4,0018.23,0008.51,0007.76
2021-10-02 00:14:00,,0829.8,5.01,0.00,29.7,28.7,00.0,38.8,31.6,21.6,0001.3,0018.02,0008.54,0007.77
2021-10-02 00:15:00,,0829.8,5.00,0.00,29.8,28.8,00.0,38.8,31.6,21.6,0001.3,0018.94,0008.64,0007.78
2021-10-02 00:16:00,,0829.8,5.00,0.00,29.8,28.9,00.0,38.8,31.7,21.4,0001.2,0018.76,0008.66,0007.79
2021-10-02 00:17:00,,0829.8,5.01,0.00,29.8,29.0,00.0,38.8,31.7,21.2,0001.1,0018.73,0008.72,0007.82
2021-10-02 00:18:00,,0829.8,4.99,0.00,29.9,29.0,00.0,38.8,31.8,21.2,0001.0,0017.97,0008.76,0007.85
2021-10-02 00:19:00,,0829.9,4.99,0.00,29.9,29.1,00.0,38.8,31.7,21.2,0000.9,0017.51,0008.76,0007.86
2021-10-02 00:20:00,,0829.8,5.00,0.00,29.9,29.1,00.0,38.9,31.8,21.0,0000.8,0017.58,0008.76,0007.85
2021-10-02 00:21:00,,0829.9,5.01,0.00,30.0,29.2,00.0,38.9,31.9,20.7,0001.0,0017.80,0008.80,0007.85
2021-10-02 00:22:00,,0829.9,5.00,0.00,30.0,29.2,00.0,38.9,31.9,20.6,0001.1,0017.34,0008.82,0007.86
2021-10-02 00:23:00,,0829.8,4.99,0.00,30.0,29.3,00.0,38.9,31.9,20.6,0001.1,0017.29,0008.82,0007.83
2021-10-02 00:24:00,,0829.9,5.01,0.00,30.1,29.4,00.0,39.0,32.0,20.6,0001.0,0017.11,0008.79,0007.83
2021-10-02 00:25:00,,0829.9,4.99,0.00,30.1,29.4,00.0,39.0,32.0,20.6,0001.1,0016.62,0008.77,0007.83
2021-10-02 00:26:00,,0829.9,5.01,0.00,30.1,29.3,00.0,39.0,31.9,20.5,0001.1,0016.26,0008.74,0007.83
2021-10-02 00:27:00,,0829.9,5.00,0.00,30.1,27.5,00.0,39.0,31.5,20.5,0001.2,0016.47,0008.73,0007.83
2021-10-02 00:28:00,,0829.9,5.00,0.00,29.9,26.4,00.0,39.0,31.2,20.7,0001.4,0016.09,0008.71,0007.83
2021-10-02 00:29:00,,0829.9,4.99,0.00,29.8,26.6,00.0,39.0,31.2,20.8,0001.4,0015.50,0008.69,0007.84
2021-10-02 00:30:00,,0829.8,5.00,0.00,29.7,27.0,00.0,38.9,31.3,21.0,0001.4,0015.08,0008.69,0007.83
2021-10-02 00:31:00,,0829.9,5.00,0.00,29.7,27.4,00.0,38.9,31.4,21.0,0001.3,0014.84,0008.65,0007.81
2021-10-02 00:32:00,,0829.9,5.01,0.00,29.7,27.8,00.0,38.9,31.4,21.0,0001.1,0015.23,0008.62,0007.79
2021-10-02 00:33:00,,0829.9,4.99,0.00,29.7,28.0,00.0,38.9,31.5,21.0,0000.9,0015.36,0008.58,0007.78
2021-10-02 00:34:00,,0829.9,5.00,0.00,29.8,28.3,00.0,38.9,31.5,21.0,0001.0,0015.75,0008.58,0007.78
2021-10-02 00:35:00,,0829.8,5.01,0.00,29.8,28.4,00.0,38.9,31.5,20.9,0000.9,0015.75,0008.56,0007.76
2021-10-02 00:36:00,,0829.9,4.99,0.00,29.8,28.6,00.0,38.9,31.6,20.8,0000.7,0015.45,0008.53,0007.74
2021-10-02 00:37:00,,0829.9,5.02,0.00,29.8,28.7,00.0,38.9,31.7,20.7,0000.8,0014.99,0008.46,0007.70
2021-10-02 00:38:00,,0829.8,4.99,0.00,29.9,28.8,00.0,38.9,31.7,20.6,0001.0,0014.60,0008.40,0007.67
2021-10-02 00:39:00,,0829.8,5.00,0.00,29.9,28.9,00.0,38.9,31.8,20.6,0001.1,0015.14,0008.37,0007.64
2021-10-02 00:40:00,,0829.9,5.00,0.00,29.9,29.0,00.0,38.9,31.7,20.6,0001.4,0015.81,0008.33,0007.58
2021-10-02 00:41:00,,0829.9,4.99,0.00,30.0,29.0,00.0,38.9,31.8,20.5,0001.4,0016.18,0008.29,0007.53
2021-10-02 00:42:00,,0829.9,5.00,0.00,30.0,29.1,00.0,39.0,31.9,20.4,0001.5,0016.46,0008.28,0007.50
2021-10-02 00:43:00,,0829.9,5.00,0.00,30.0,29.1,00.0,39.0,31.9,20.3,0001.7,0015.82,0008.25,0007.47
2021-10-02 00:44:00,,0829.8,5.00,0.00,30.1,29.2,00.0,39.0,31.9,20.3,0001.8,0015.58,0008.20,0007.42
2021-10-02 00:45:00,,0829.9,4.99,0.00,30.1,29.2,00.0,39.0,32.0,20.3,0001.7,0015.17,0008.16,0007.38
2021-10-02 00:46:00,,0829.9,5.01,0.00,30.1,29.3,00.0,39.1,32.0,20.2,0001.7,0015.95,0008.13,0007.36
2021-10-02 00:47:00,,0829.9,5.00,0.00,30.1,29.3,00.0,39.1,32.0,20.3,0002.1,0015.81,0008.10,0007.34
2021-10-02 00:48:00,,0829.9,5.01,0.00,30.1,28.0,00.0,39.1,31.7,20.4,0002.2,0016.21,0008.12,0007.32
2021-10-02 00:49:00,,0829.9,5.00,0.00,29.9,26.4,00.0,39.1,31.2,20.6,0001.9,0016.74,0008.15,0007.30
2021-10-02 00:50:00,,0829.9,5.01,0.00,29.8,26.4,00.0,39.0,31.2,20.8,0001.9,0016.22,0008.14,0007.28
2021-10-02 00:51:00,,0829.9,4.99,0.00,29.8,26.8,00.0,39.0,31.3,20.9,0001.8,0015.59,0008.09,0007.26
2021-10-02 00:52:00,,0830.0,5.00,0.00,29.7,27.2,00.0,38.9,31.3,21.0,0001.9,0015.34,0008.05,0007.24
2021-10-02 00:53:00,,0830.1,5.00,0.00,29.7,27.6,00.0,38.9,31.4,21.0,0001.9,0015.15,0008.02,0007.23
2021-10-02 00:54:00,,0830.1,4.99,0.00,29.7,27.9,00.0,38.9,31.4,21.1,0001.9,0015.07,0007.96,0007.20
2021-10-02 00:55:00,,0830.1,5.01,0.00,29.8,28.2,00.0,38.9,31.5,21.4,0001.8,0015.02,0007.91,0007.17
2021-10-02 00:56:00,,0830.1,5.00,0.00,29.8,28.4,00.0,38.9,31.5,21.4,0001.8,0015.58,0007.86,0007.12
2021-10-02 00:57:00,,0830.1,5.00,0.00,29.8,28.5,00.0,38.9,31.6,21.2,0001.8,0015.15,0007.85,0007.07
2021-10-02 00:58:00,,0830.1,4.99,0.00,29.8,28.7,00.0,38.9,31.6,21.1,0001.7,0015.01,0007.78,0007.01
2021-10-02 00:59:00,,0830.1,5.00,0.00,29.8,28.8,00.0,38.9,31.7,21.2,0001.4,0014.68,0007.71,0006.96
